Belen, NM

12:23 PM MST on February 22, 2018 (GMT -0700)
Belen

Weather History for KE80 - November, 2013

Change the Weather History Date:

Wednesday, November 27, 2013

  Actual Average (KABQ) Record (KABQ)
Temperature  
Mean Temperature 34 °F -  
Max Temperature 45 °F 47 °F 69 °F (1949)
Min Temperature 23 °F 26 °F 1 °F (1976)
Degree Days  
Heating Degree Days 31    
Moisture  
Dew Point 29 °F    
Average Humidity 81    
Maximum Humidity 98    
Minimum Humidity 55    
Precipitation  
Precipitation 0.00 in - - ()
Sea Level Pressure  
Sea Level Pressure 30.31 in    
Wind  
Wind Speed 2 mph (South)    
Max Wind Speed 7 mph    
Max Gust Speed -    
Visibility 10 miles    
Events      
Averages and records for this station are not official NWS values.
T = Trace of Precipitation, MM = Missing Value Source: NWS Daily Summary

Daily Weather History Graph

Daily Weather History Graph

Search for Another Location

Airport or City:

Trip Planner

Search our weather history database for the weather conditions in past years. The results will help you decide how hot, cold, wet, or windy it might be!

Date:

Astronomy

Nov. 27, 2013 Rise Set
Actual Time 6:52 AM MST 4:57 PM MST
Civil Twilight 6:25 AM MST 5:24 PM MST
Nautical Twilight 5:54 AM MST 5:55 PM MST
Astronomical Twilight 5:24 AM MST 6:25 PM MST
Moon 1:10 AM MST (11/27) 1:24 PM MST (11/27)
Length of Visible Light 10h 59m
Length of Day
10h 04m
Waning Crescent, 31% of the Moon is Illuminated
Nov 27
Waning Crescent
Dec 2
New
Dec 9
First Quarter
Dec 17
Full
Dec 25
Last Quarter

Hourly Weather History & Observations

Time (MST) Temp. Windchill Dew Point Humidity Pressure Visibility Wind Dir Wind Speed Gust Speed Precip Events Conditions
12:15 AM 31.1 °F - 26.6 °F 83% 30.41 in 10.0 mi Calm Calm - N/A   Clear
12:35 AM 31.5 °F 26.8 °F 27.0 °F 83% 30.41 in 10.0 mi ESE 4.6 mph - N/A   Clear
12:55 AM 30.7 °F - 26.2 °F 83% 30.40 in 10.0 mi Calm Calm - N/A   Clear
1:15 AM 29.8 °F 26.3 °F 26.1 °F 86% 30.40 in 10.0 mi East 3.5 mph - N/A   Clear
1:35 AM 27.9 °F - 25.0 °F 89% 30.40 in 10.0 mi Calm Calm - N/A   Clear
1:55 AM 28.0 °F - 25.0 °F 88% 30.40 in 10.0 mi Calm Calm - N/A   Clear
2:15 AM 28.9 °F - 25.7 °F 88% 30.39 in 10.0 mi Calm Calm - N/A   Clear
2:35 AM 29.7 °F - 26.6 °F 88% 30.39 in 10.0 mi Calm Calm - N/A   Clear
2:55 AM 28.4 °F 23.3 °F 26.1 °F 91% 30.39 in 10.0 mi NNE 4.6 mph - N/A   Clear
3:15 AM 28.4 °F 22.2 °F 26.2 °F 92% 30.39 in 10.0 mi NNE 5.8 mph - N/A   Clear
3:35 AM 27.9 °F 21.5 °F 26.4 °F 94% 30.39 in 10.0 mi NNE 5.8 mph - N/A   Clear
3:55 AM 28.6 °F 23.5 °F 27.0 °F 94% 30.39 in 10.0 mi WNW 4.6 mph - N/A   Clear
4:15 AM 26.1 °F 19.4 °F 24.8 °F 95% 30.38 in 10.0 mi WNW 5.8 mph - N/A   Clear
4:35 AM 24.8 °F 16.9 °F 24.3 °F 98% 30.39 in 10.0 mi WNW 6.9 mph - N/A   Clear
4:55 AM 24.6 °F 16.7 °F 23.9 °F 97% 30.39 in 10.0 mi WNW 6.9 mph - N/A   Clear
5:15 AM 26.2 °F 20.7 °F 25.7 °F 98% 30.38 in 10.0 mi NNW 4.6 mph - N/A   Clear
5:35 AM 24.4 °F 18.6 °F 23.7 °F 97% 30.39 in 10.0 mi NW 4.6 mph - N/A   Clear
5:55 AM 24.8 °F - 24.1 °F 97% 30.39 in 10.0 mi Calm Calm - N/A   Clear
6:15 AM 24.8 °F - 23.9 °F 96% 30.39 in 10.0 mi Calm Calm - N/A   Clear
6:35 AM 23.9 °F - 23.2 °F 97% 30.39 in 10.0 mi Calm Calm - N/A   Clear
6:55 AM 23.4 °F 18.9 °F 22.5 °F 96% 30.39 in 10.0 mi SW 3.5 mph - N/A   Clear
7:15 AM 24.3 °F 19.9 °F 23.4 °F 96% 30.39 in 10.0 mi WNW 3.5 mph - N/A   Clear
7:35 AM 25.7 °F - 24.6 °F 96% 30.38 in 10.0 mi Calm Calm - N/A   Clear
7:55 AM 28.8 °F - 27.5 °F 95% 30.38 in 10.0 mi Calm Calm - N/A   Clear
8:15 AM 31.1 °F - 29.5 °F 94% 30.38 in 10.0 mi Calm Calm - N/A   Clear
8:35 AM 32.0 °F - 30.0 °F 92% 30.37 in 10.0 mi Calm Calm - N/A   Clear
8:55 AM 32.9 °F - 30.7 °F 92% 30.38 in 10.0 mi Calm Calm - N/A   Clear
9:15 AM 34.0 °F - 31.5 °F 90% 30.37 in 10.0 mi Calm Calm - N/A   Clear
9:35 AM 34.7 °F - 30.7 °F 85% 30.37 in 10.0 mi Calm Calm - N/A   Clear
9:55 AM 36.7 °F - 31.5 °F 81% 30.37 in 10.0 mi Calm Calm - N/A   Clear
10:15 AM 37.9 °F - 31.1 °F 76% 30.37 in 10.0 mi Calm Calm - N/A   Clear
10:35 AM 39.4 °F 37.2 °F 31.6 °F 74% 30.36 in 10.0 mi East 3.5 mph - N/A   Clear
10:55 AM 40.5 °F 38.4 °F 31.5 °F 70% 30.35 in 10.0 mi East 3.5 mph - N/A   Clear
11:15 AM 41.0 °F - 30.9 °F 67% 30.34 in 10.0 mi Calm Calm - N/A   Clear
11:35 AM 42.1 °F - 30.9 °F 65% 30.33 in 10.0 mi Calm Calm - N/A   Clear
11:55 AM 43.0 °F - 31.1 °F 63% 30.31 in 10.0 mi Calm Calm - N/A   Clear
12:15 PM 43.2 °F - 30.9 °F 62% 30.29 in 10.0 mi Calm Calm - N/A   Clear
12:35 PM 44.1 °F 42.5 °F 30.7 °F 59% 30.29 in 10.0 mi ESE 3.5 mph - N/A   Clear
12:55 PM 45.0 °F 43.5 °F 31.3 °F 59% 30.28 in 10.0 mi SSE 3.5 mph - N/A   Clear
1:15 PM 44.6 °F - 30.7 °F 58% 30.26 in 10.0 mi Calm Calm - N/A   Clear
1:35 PM 45.0 °F - 30.9 °F 58% 30.25 in 10.0 mi Calm Calm - N/A   Clear
1:55 PM 44.6 °F 43.1 °F 30.7 °F 58% 30.25 in 10.0 mi ESE 3.5 mph - N/A   Clear
2:15 PM 44.6 °F - 30.2 °F 57% 30.24 in 10.0 mi Calm Calm - N/A   Clear
2:35 PM 44.8 °F 43.3 °F 30.4 °F 57% 30.23 in 10.0 mi SSE 3.5 mph - N/A   Clear
2:55 PM 44.8 °F 43.3 °F 29.7 °F 55% 30.23 in 10.0 mi South 3.5 mph - N/A   Clear
3:15 PM 44.8 °F 41.6 °F 30.2 °F 57% 30.23 in 10.0 mi SE 5.8 mph - N/A   Clear
3:35 PM 44.1 °F 40.8 °F 29.1 °F 56% 30.23 in 10.0 mi SE 5.8 mph - N/A   Clear
3:55 PM 43.7 °F 42.1 °F 29.1 °F 57% 30.22 in 10.0 mi SSE 3.5 mph - N/A   Clear
4:15 PM 43.0 °F 41.3 °F 30.0 °F 60% 30.22 in 10.0 mi South 3.5 mph - N/A   Clear
4:35 PM 42.4 °F - 30.7 °F 63% 30.22 in 10.0 mi Calm Calm - N/A   Clear
4:55 PM 40.1 °F 36.9 °F 32.2 °F 73% 30.22 in 10.0 mi SW 4.6 mph - N/A   Clear
5:15 PM 38.5 °F 35.0 °F 32.0 °F 78% 30.22 in 10.0 mi SSW 4.6 mph - N/A   Clear
5:35 PM 37.9 °F 35.5 °F 32.0 °F 79% 30.22 in 10.0 mi SSW 3.5 mph - N/A   Clear
5:55 PM 38.5 °F 36.1 °F 32.0 °F 78% 30.22 in 10.0 mi SSW 3.5 mph - N/A   Clear
6:15 PM 38.7 °F - 32.0 °F 77% 30.22 in 10.0 mi Calm Calm - N/A   Clear
6:35 PM 38.3 °F - 31.5 °F 76% 30.22 in 10.0 mi Calm Calm - N/A   Clear
6:55 PM 36.3 °F - 31.3 °F 82% 30.22 in 10.0 mi Calm Calm - N/A   Clear
7:15 PM 36.5 °F - 31.8 °F 83% 30.22 in 10.0 mi Calm Calm - N/A   Clear
7:35 PM 34.9 °F 30.8 °F 31.1 °F 86% 30.22 in 10.0 mi South 4.6 mph - N/A   Clear
7:55 PM 34.7 °F 29.6 °F 30.7 °F 85% 30.22 in 10.0 mi South 5.8 mph - N/A   Clear
8:15 PM 32.4 °F 27.9 °F 30.2 °F 92% 30.22 in 10.0 mi South 4.6 mph - N/A   Clear
8:35 PM 32.9 °F 28.5 °F 29.8 °F 88% 30.23 in 10.0 mi South 4.6 mph - N/A   Clear
8:55 PM 32.9 °F 27.5 °F 29.5 °F 87% 30.23 in 10.0 mi South 5.8 mph - N/A   Clear
9:15 PM 32.9 °F 29.8 °F 29.5 °F 87% 30.23 in 10.0 mi South 3.5 mph - N/A   Clear
9:35 PM 32.9 °F 28.5 °F 29.7 °F 88% 30.23 in 10.0 mi South 4.6 mph - N/A   Clear
9:55 PM 33.4 °F - 29.3 °F 85% 30.23 in 10.0 mi Calm Calm - N/A   Clear
10:15 PM 33.8 °F - 29.7 °F 85% 30.23 in 10.0 mi Calm Calm - N/A   Clear
10:35 PM 33.8 °F 30.8 °F 29.7 °F 85% 30.23 in 10.0 mi SSE 3.5 mph - N/A   Clear
10:55 PM 33.1 °F 28.7 °F 29.3 °F 86% 30.22 in 10.0 mi SSE 4.6 mph - N/A   Clear
11:15 PM 32.2 °F 28.9 °F 28.9 °F 88% 30.22 in 10.0 mi SE 3.5 mph - N/A   Clear
11:35 PM 32.0 °F - 28.4 °F 87% 30.22 in 10.0 mi Calm Calm - N/A   Clear
11:55 PM 31.8 °F - 28.0 °F 86% 30.22 in 10.0 mi Calm Calm - N/A   Clear